Back to catalog

SL-16 DEB

LostLEO
NORAD 39888·DEBRIS·🇷🇺 Russia

Launched Mar 26, 1993 from Baikonur Cosmodrome

Loading…

Next Passes (next 24 hours)

TLE

StaleSource: Space-Track

Epoch: Aug 5, 2026, 22:23 UTC

1 39888U 93016BN  26217.93315010  .00003508  00000-0  95015-3 0  9994
2 39888  70.9502 323.3858 0071767 287.1247  72.2042 14.46879019630984

Track SL-16 DEB in real time with AllMySat

Download on the App Store